| time (UTC) | temp F | wind direction | speed MPH | gust MPH | rain 1hr in | rain 24hr in | rain mn in | humidity % | barometer mb |
| 20260906220530 | 83 | 341 | 0.0 | 3.0 | 0.00 | 0.00 | 0.00 | 39 | 1018.9 |
| 20260906215029 | 83 | 7 | 0.0 | 2.0 | 0.00 | 0.00 | 0.00 | 39 | 1018.9 |
| 20260906213529 | 83 | 1 | 0.0 | 2.0 | 0.00 | 0.00 | 0.00 | 38 | 1018.9 |
| 20260906212029 | 83 | 4 | 0.0 | 2.0 | 0.00 | 0.00 | 0.00 | 39 | 1018.9 |
| 20260906210531 | 84 | 0 | 0.0 | 3.0 | 0.00 | 0.00 | 0.00 | 39 | 1018.8 |
| 20260906205030 | 84 | 25 | 0.0 | 2.0 | 0.00 | 0.00 | 0.00 | 39 | 1018.8 |
| 20260906203530 | 84 | 44 | 0.0 | 2.0 | 0.00 | 0.00 | 0.00 | 38 | 1018.8 |
| 20260906200530 | 85 | 23 | 0.0 | 1.0 | 0.00 | 0.00 | 0.00 | 36 | 1018.7 |
| 20260906195032 | 86 | 63 | 0.0 | 0.0 | 0.00 | 0.00 | 0.00 | 35 | 1018.7 |
| 20260906193530 | 86 | 80 | 0.0 | 1.0 | 0.00 | 0.00 | 0.00 | 34 | 1018.5 |
| 20260906192032 | 86 | 34 | 1.0 | 2.0 | 0.00 | 0.00 | 0.00 | 34 | 1018.4 |
| 20260906190530 | 87 | 3 | 0.0 | 3.0 | 0.00 | 0.00 | 0.00 | 34 | 1018.5 |
| 20260906185032 | 87 | 7 | 0.0 | 5.0 | 0.00 | 0.00 | 0.00 | 35 | 1018.4 |
| 20260906183529 | 87 | 14 | 0.0 | 3.0 | 0.00 | 0.00 | 0.00 | 36 | 1018.3 |
| 20260906182035 | 88 | 72 | 0.0 | 2.0 | 0.00 | 0.00 | 0.00 | 35 | 1018.1 |
| 20260906180529 | 88 | 48 | 0.0 | 3.0 | 0.00 | 0.00 | 0.00 | 36 | 1018.0 |
| 20260906175031 | 88 | 62 | 0.0 | 0.0 | 0.00 | 0.00 | 0.00 | 37 | 1017.8 |
| 20260906173533 | 88 | 164 | 0.0 | 0.0 | 0.00 | 0.00 | 0.00 | 42 | 1017.4 |
| 20260906172031 | 89 | 353 | 0.0 | 2.0 | 0.00 | 0.00 | 0.00 | 43 | 1017.2 |
| 20260906170526 | 89 | 0 | 0.0 | 1.0 | 0.00 | 0.00 | 0.00 | 42 | 1017.1 |
| 20260906165029 | 90 | 350 | 0.0 | 3.0 | 0.00 | 0.00 | 0.00 | 42 | 1017.0 |
| 20260906163528 | 90 | 272 | 0.0 | 3.0 | 0.00 | 0.00 | 0.00 | 41 | 1016.8 |
| 20260906162033 | 91 | 330 | 0.0 | 5.0 | 0.00 | 0.00 | 0.00 | 38 | 1016.9 |
| 20260906155027 | 92 | 334 | 0.0 | 2.0 | 0.00 | 0.00 | 0.00 | 36 | 1016.8 |
| 20260906153524 | 92 | 226 | 1.0 | 4.0 | 0.00 | 0.00 | 0.00 | 36 | 1016.7 |
| 20260906152027 | 93 | 178 | 1.0 | 5.0 | 0.00 | 0.00 | 0.00 | 35 | 1016.6 |
| 20260906150526 | 93 | 237 | 2.0 | 3.0 | 0.00 | 0.00 | 0.00 | 34 | 1016.6 |
| 20260906145024 | 93 | 244 | 1.0 | 5.0 | 0.00 | 0.00 | 0.00 | 33 | 1016.6 |
| 20260906143525 | 93 | 138 | 1.0 | 7.0 | 0.00 | 0.00 | 0.00 | 34 | 1016.6 |
| 20260906142026 | 93 | 175 | 1.0 | 6.0 | 0.00 | 0.00 | 0.00 | 34 | 1016.7 |
| 20260906140528 | 94 | 254 | 3.0 | 6.0 | 0.00 | 0.00 | 0.00 | 33 | 1016.7 |
| 20260906135025 | 94 | 247 | 1.0 | 6.0 | 0.00 | 0.00 | 0.00 | 32 | 1016.7 |
| 20260906133526 | 94 | 199 | 3.0 | 7.0 | 0.00 | 0.00 | 0.00 | 32 | 1016.7 |
| 20260906132030 | 94 | 259 | 3.0 | 7.0 | 0.00 | 0.00 | 0.00 | 32 | 1016.7 |
| 20260906130522 | 94 | 262 | 1.0 | 6.0 | 0.00 | 0.00 | 0.00 | 32 | 1016.8 |
| 20260906125023 | 94 | 281 | 2.0 | 6.0 | 0.00 | 0.00 | 0.00 | 32 | 1016.8 |
| 20260906123535 | 94 | 248 | 2.0 | 5.0 | 0.00 | 0.00 | 0.00 | 32 | 1016.9 |
| 20260906122029 | 94 | 247 | 2.0 | 7.0 | 0.00 | 0.00 | 0.00 | 33 | 1017.0 |
| 20260906120523 | 94 | 245 | 2.0 | 9.0 | 0.00 | 0.00 | 0.00 | 34 | 1017.0 |
| 20260906115023 | 93 | 221 | 4.0 | 7.0 | 0.00 | 0.00 | 0.00 | 35 | 1017.1 |
| 20260906112021 | 93 | 148 | 2.0 | 7.0 | 0.00 | 0.00 | 0.00 | 37 | 1017.0 |
| 20260906105021 | 93 | 272 | 4.0 | 7.0 | 0.00 | 0.00 | 0.00 | 38 | 1017.0 |
| 20260906103520 | 93 | 221 | 2.0 | 5.0 | 0.00 | 0.00 | 0.00 | 40 | 1017.0 |
| 20260906102035 | 93 | 223 | 2.0 | 4.0 | 0.00 | 0.00 | 0.00 | 38 | 1017.0 |
| 20260906100519 | 93 | 259 | 2.0 | 4.0 | 0.00 | 0.00 | 0.00 | 37 | 1017.2 |
| 20260906095019 | 92 | 257 | 1.0 | 4.0 | 0.00 | 0.00 | 0.00 | 38 | 1017.1 |
| 20260906093519 | 92 | 206 | 2.0 | 5.0 | 0.00 | 0.00 | 0.00 | 36 | 1017.3 |
| 20260906092015 | 91 | 268 | 2.0 | 5.0 | 0.00 | 0.00 | 0.00 | 39 | 1017.5 |
| 20260906090517 | 91 | 241 | 1.0 | 4.0 | 0.00 | 0.00 | 0.00 | 38 | 1017.5 |
| 20260906085021 | 89 | 262 | 1.0 | 6.0 | 0.00 | 0.00 | 0.00 | 41 | 1017.4 |
| 20260906083515 | 89 | 216 | 1.0 | 4.0 | 0.00 | 0.00 | 0.00 | 37 | 1017.5 |
| 20260906082036 | 90 | 345 | 0.0 | 6.0 | 0.00 | 0.00 | 0.00 | 31 | 1017.5 |
| 20260906080516 | 89 | 310 | 2.0 | 6.0 | 0.00 | 0.00 | 0.00 | 31 | 1017.5 |
| 20260906075017 | 89 | 0 | 1.0 | 4.0 | 0.00 | 0.00 | 0.00 | 33 | 1017.6 |
| 20260906073518 | 88 | 320 | 0.0 | 2.0 | 0.00 | 0.00 | 0.00 | 33 | 1017.5 |
| 20260906072017 | 86 | 285 | 1.0 | 4.0 | 0.00 | 0.00 | 0.00 | 34 | 1017.5 |
| 20260906070515 | 85 | 333 | 1.0 | 3.0 | 0.00 | 0.00 | 0.00 | 34 | 1017.3 |
| 20260906065021 | 85 | 309 | 0.0 | 3.0 | 0.00 | 0.00 | 0.00 | 35 | 1017.3 |
| 20260906063516 | 83 | 234 | 0.0 | 0.0 | 0.00 | 0.00 | 0.00 | 37 | 1017.0 |
| 20260906060515 | 81 | 286 | 0.0 | 0.0 | 0.00 | 0.00 | 0.00 | 39 | 1016.8 |
| 20260906053513 | 79 | 296 | 0.0 | 0.0 | 0.00 | 0.00 | 0.00 | 39 | 1016.7 |
| 20260906052012 | 79 | 118 | 0.0 | 0.0 | 0.00 | 0.00 | 0.00 | 39 | 1016.6 |
| 20260906045014 | 76 | 118 | 0.0 | 0.0 | 0.00 | 0.00 | 0.00 | 40 | 1016.6 |
| 20260906043513 | 76 | 138 | 0.0 | 0.0 | 0.00 | 0.00 | 0.00 | 40 | 1016.6 |
| 20260906042017 | 76 | 145 | 0.0 | 0.0 | 0.00 | 0.00 | 0.00 | 39 | 1016.2 |
| 20260906040511 | 76 | 145 | 0.0 | 0.0 | 0.00 | 0.00 | 0.00 | 39 | 1016.1 |
| 20260906033509 | 75 | 145 | 0.0 | 0.0 | 0.00 | 0.00 | 0.00 | 40 | 1015.9 |
| 20260906032011 | 76 | 145 | 0.0 | 0.0 | 0.00 | 0.00 | 0.00 | 39 | 1015.9 |
| 20260906030509 | 76 | 147 | 0.0 | 0.0 | 0.00 | 0.00 | 0.00 | 37 | 1015.9 |
| 20260906025009 | 77 | 148 | 0.0 | 0.0 | 0.00 | 0.00 | 0.00 | 36 | 1015.7 |
| 20260906023514 | 76 | 149 | 0.0 | 2.0 | 0.00 | 0.00 | 0.00 | 37 | 1015.5 |
| 20260906022011 | 76 | 158 | 0.0 | 2.0 | 0.00 | 0.00 | 0.00 | 37 | 1015.6 |
| 20260906020509 | 77 | 141 | 1.0 | 2.0 | 0.00 | 0.00 | 0.00 | 36 | 1015.5 |
| 20260906015016 | 77 | 159 | 1.0 | 3.0 | 0.00 | 0.00 | 0.00 | 35 | 1015.7 |
| 20260906013508 | 77 | 147 | 0.0 | 2.0 | 0.00 | 0.00 | 0.00 | 36 | 1015.8 |
| 20260906012006 | 77 | 149 | 0.0 | 0.0 | 0.00 | 0.00 | 0.00 | 37 | 1015.9 |
| 20260906010509 | 77 | 152 | 0.0 | 1.0 | 0.00 | 0.00 | 0.00 | 36 | 1016.0 |
| 20260906005005 | 77 | 171 | 0.0 | 2.0 | 0.00 | 0.00 | 0.00 | 36 | 1015.9 |
| 20260906003506 | 77 | 137 | 1.0 | 2.0 | 0.00 | 0.00 | 0.00 | 36 | 1016.0 |
| 20260906002008 | 78 | 147 | 1.0 | 2.0 | 0.00 | 0.00 | 0.00 | 37 | 1015.8 |
| 20260905235004 | 78 | 161 | 0.0 | 2.0 | 0.00 | 0.00 | 0.00 | 36 | 1016.0 |
| 20260905233509 | 78 | 149 | 2.0 | 3.0 | 0.00 | 0.00 | 0.00 | 37 | 1016.1 |
| 20260905230502 | 78 | 178 | 1.0 | 2.0 | 0.00 | 0.00 | 0.00 | 36 | 1016.5 |
| 20260905225002 | 78 | 148 | 0.0 | 0.0 | 0.00 | 0.00 | 0.00 | 35 | 1016.5 |
| 20260905223502 | 78 | 148 | 0.0 | 0.0 | 0.00 | 0.00 | 0.00 | 35 | 1016.5 |